This demonstration page uses our WeatherBlox Daily Observations layout. Learn more.

Left ArrowRight Arrow

34.74481, -87.66753

Hourly Observations for May 3, 2022

Temp ( °F °C ) Dew Point ( °F °C ) Humidity (%) Winds ( mph kmh ) Pressure ( in mb ) Visibility ( mi km ) Precip ( " mm )
12:56 am 00:56 Mostly Cloudy 70 21.1 66 18.9 87 87 S 7 11 29.96 1015 10 16 0.00 0.00
1:56 am 01:56 Clear 70 21.1 66 18.9 87 87 S 12 19 29.93 1014 10 16 0.00 0.00
2:56 am 02:56 Mostly Cloudy 69 20.6 66 18.9 90 90 S 9 15 29.94 1014 10 16 0.00 0.00
3:56 am 03:56 Mostly Clear 67 19.4 65 18.3 93 93 S 8 13 29.94 1014 10 16 0.00 0.00
4:13 am 04:13 Mostly Cloudy 66 19 64 18 94 94 S 12 19 29.97 1015 10 16 0.00 0.00
4:56 am 04:56 Cloudy 67 19.4 66 18.9 97 97 SSW 15 24 29.95 1014 10 16 0.00 0.00
5:56 am 05:56 Cloudy 68 20 66 18.9 93 93 SSW 14 22 29.95 1014 10 16 0.00 0.00
6:36 am 06:36 Cloudy 68 20 64 18 88 88 WSW 10 17 30.03 1017 10 16 0.00 0.00
6:56 am 06:56 Cloudy 68 20 65 18.3 90 90 SW 9 15 30.03 1017 10 16 0.00 0.00
7:56 am 07:56 Cloudy 70 21.1 66 18.9 87 87 SW 8 13 30.03 1017 10 16 0.00 0.00
8:56 am 08:56 Mostly Cloudy 73 22.8 66 18.9 79 79 SSW 13 20 30.03 1017 10 16 0.00 0.00
9:11 am 09:11 Cloudy 73 23 66 19 78 78 SW 12 19 30.04 1017 10 16 0.00 0.00
9:56 am 09:56 Cloudy 75 23.9 66 18.9 74 74 SW 10 17 30.02 1017 10 16 0.00 0.00
10:22 am 10:22 Cloudy 75 24 64 18 69 69 SW 15 24 30.03 1017 10 16 0.00 0.00
10:34 am 10:34 Mostly Cloudy 75 24 64 18 69 69 SW 13 20 30.02 1017 10 16 0.00 0.00
10:56 am 10:56 Partly Cloudy 77 25 66 18.9 69 69 SW 15 24 30.01 1016 10 16 0.00 0.00
11:56 am 11:56 Mostly Cloudy 78 25.6 64 17.8 62 62 SW 18 30 29.99 1016 10 16 0.00 0.00
12:56 pm 12:56 Mostly Sunny 79 26.1 64 17.8 60 60 SSW 20 31 29.97 1015 10 16 0.00 0.00
1:56 pm 13:56 Mostly Sunny 82 27.8 63 17.2 53 53 SSW 16 26 29.95 1014 10 16 0.00 0.00
2:56 pm 14:56 Mostly Sunny 81 27.2 64 17.8 57 57 SSW 16 26 29.95 1014 10 16 0.00 0.00
3:56 pm 15:56 Mostly Sunny 81 27.2 64 17.8 57 57 SSW 12 19 29.93 1014 10 16 0.00 0.00
4:56 pm 16:56 Mostly Sunny 80 26.7 61 16.1 52 52 SSW 10 17 29.94 1014 10 16 0.00 0.00
5:56 pm 17:56 Sunny 81 27.2 64 17.8 57 57 SW 10 17 29.94 1014 10 16 0.00 0.00
6:56 pm 18:56 Mostly Sunny 78 25.6 63 17.2 60 60 SW 6 9 29.94 1014 10 16 0.00 0.00
7:56 pm 19:56 Mostly Cloudy 74 23.3 62 16.7 67 67 Calm 29.95 1014 10 16 0.00 0.00
8:56 pm 20:56 Partly Cloudy 73 22.8 65 18.3 76 76 SW 6 9 29.97 1015 10 16 0.00 0.00
9:56 pm 21:56 Clear 72 22.2 64 17.8 76 76 WSW 8 13 29.99 1016 10 16 0.00 0.00
10:56 pm 22:56 Clear 69 20.6 65 18.3 87 87 Calm 30.00 1016 10 16 0.00 0.00
11:56 pm 23:56 Mostly Clear 66 18.9 64 17.8 93 93 Calm 30.01 1016 10 16 0.00 0.00

Powered by AerisWeather